Weather in Frunze

Russia / Republic of Crimea     45°01′44″N   33°38′04″E
temp.,
°C
wind,
m/s
gust,
m/s
humid.,
%
clouds,
%
prec.,
mm/h
press.,
hPa
HPBL,
m
3 march, wed
wed300:00+3sw697854 0.0 1024320
03:00+6wsw7118175 0.0 1023687
06:00+3n6981100 0.1 1023552
09:00+4n587090 0.1 10251133
12:00+7n585852 0.0 10261160
15:00+8nnw564713 0.0 10271511
18:00+7nnw46540 0.0 1027441
21:00+4nw33690 0.0 102980
4 march, thu
thu400:00+3ssw017521 0.0 102838
03:00+2sse227839 0.0 102827
06:00+2s33790 0.0 102649
09:00+4s36680 0.0 1026243
12:00+8sw67550 0.0 1024911
15:00+8sw79600 0.0 1022783
18:00+6sw710680 0.0 1020705
21:00+4ssw612740 0.0 1020485
5 march, fri
fri500:00+4ssw713770 0.0 1019466
03:00+4ssw713770 0.0 1018411
06:00+3ssw613770 0.0 1016345
09:00+6ssw713642 0.0 1016440
12:00+11ssw1013530 0.0 1014714
15:00+11ssw1014600 0.0 1013675
18:00+9ssw914729 0.0 1012553
21:00+7ssw8138613 0.0 1013439
6 march, sat
sat600:00+7ssw6119027 0.0 1013309
03:00+6ssw359048 0.0 101494
06:00+6s238936 0.0 101540
09:00+4nne698868 0.0 1016273
12:00+6nne6780100 0.0 1018514
15:00+3ne5886100 1.1 1018527
18:00+4n6751100 0.1 10201234
21:00+2n5952100 0.1 1023542
7 march, sun
sun700:000nne245867 0.0 1025101
03:00−1n377033 0.0 1027235
06:00−2ne12690 0.0 102753
09:00+1s22480 0.0 1028193
12:00+4wsw46390 0.0 10271623
15:00+5w674342 0.0 10261691
18:00+3w465055 0.0 1024802
21:00+2wsw355852 0.0 1023136